Погода в Балашове

Погода в Балашове : погода сейчас, прогноз погоды и архив. Всё, что Вы хотите узнать о погоде в Балашове!

Хотите узнать прогноз погоды в Балашове? Тогда Вам сюда: Погода в Балашове

Поиск расширенной информации на нашем сайте:

Полезная информация:

Другие новости

Новости СМИ2

Главная страница сайта

Новости сайта

03.07.2017

Напоминаем, что на нашем специализированном сайте Метеоцентр.Азия вы можете получить высокодетализированные автоматические прогнозы погоды по пунктам России, СНГ и мира в авиационном формате (включающие направление и скорость ветра, видимость, явления погоды, количество и форму облачности, нижнюю и верхнюю границу облачности).

Рекомендуем:

Погода в Балашове - сегодня

Время (UTC), дата Ветер
(°,м/с) 
Видим.   Явления Облачность Т
(°С)
Тd
(°С)
f(%) Тe
(°С)
Pmin
(гПа)
dP
(гПа)
Po
(мм)
O2
(г/м3)
Тmin Tmax R s Состояние
почвы
12 15.07.19 350 (С) 20000 м    8/6 1000 м средняя, верхняя 
[Cu med, cong|Ac trans|Ci fib]
+28 +9.8 32 +29  1008.4  -0.2  743  270           
15 15.07.19 350 (С) 20000 м    4/3 1000 м средняя 
[Cu med, cong|Ac trans]
+26.9 +9.2 33 +27  1008.6  0.1  743  271    +28.2       
18 15.07.19 040 (СВ) 20000 м    3/0 средняя, верхняя 
[Ac trans|Ci fib]
+18.6 +11.4 63 +23  1010.1  1.1  744  278           
21 15.07.19 070 (В) 20000 м    8/0 верхняя 
[Ci fib]
+18.2 +9.9 58 +20  1010.5  0.3  744  279           
00 16.07.19 090 (В) 20000 м    5/0 верхняя 
[Ci fib]
+17.6 +7.9 53 +18  1010.5  -0.3  744  280           
03 16.07.19 090 (В) 20000 м    10/0 средняя, верхняя 
[Ac trans|Ci fib]
+17.7 +9.2 57 +19  1010.3  -0.2  744  280  +16.1        сухая 
06 16.07.19 090 (В) 20000 м    10/0 средняя 
[Ac As]
+22.8 +12.2 51 +27  1010.2  0.3  744  274           
09 16.07.19 110 (В) 20000 м    10/1 600 м кучево-дожд., средняя 
[Cb cap|Ac und]
+24.7 +12.1 45 +29  1010  0.1  744  273           
12 16.07.19 320 (СЗ) 20000 м    10/3 1000 м кучево-дожд., средняя 
[Cb calv|As trans]
+22.1 +14.7 63 +30  1009.7  -0.4  744  274           
15 16.07.19 050 (СВ) 10 км  слаб. ливневой дождь  10/8 800 м кучево-дожд., средняя 
[Cb cap|Ac As]
+17.7 +17 96 +31  1010.4  0.4  744  278    +25.2  0.8     
18 16.07.19 040 (СВ) 10 км  слаб. ливневой дождь  10/8 900 м кучево-дожд., средняя 
[Cb cap|Ac und]
+15.6 +14.2 91 +24  1009.8  -0.7  743  280           
21 16.07.19 060 (СВ) 10 км  слаб. ливневой дождь  10/10 1000 м кучево-дожд. 
[Cb cap]
+15.6 +14.3 92 +24  1008.9  -0.9  743  280           
00 17.07.19 050 (СВ) 20000 м  {ливн. осадки}  10/10 1140 м 
[Sc]
+15.7 +14.8 94 +26  1007.2  -1.7  742  279           
03 17.07.19 090 (В) 10 км  слаб. ливневой дождь  10/10 1000 м кучево-дожд. 
[Cb cap]
+16.4 +15.5 94 +27  1005.9  -1.2  741  278  +15.5      мокрая 
06 17.07.19 080 (В) 4000 м  гроза, ливневой дождь  10/10 500 м кучево-дожд. 
[Cb cap]
+16.1 +15.4 96 +26  1005.2  -0.7  740  278           
09 17.07.19 120 (ЮВ) 20000 м  {гроза, ливн. осадки}  9/4 600 м кучево-дожд., средняя 
[Cb cap|Ac trans]
+20 +19.5 97 +38  1003.8  -1  739  273           
12 17.07.19 220 (ЮЗ) 20000 м  в посл. час ливневой дождь{гроза}  9/6 540 м кучево-дожд., средняя 
[Cb cap|Ac trans]
+21.5 +19.5 88 +40  1003.4  -0.4  739  271           
15 17.07.19 310 (СЗ) 20000 м    9/4 600 м кучево-дожд., средняя 
[Cb cap|Ac trans]
+21.2 +18 82 +36  1003.7  0.4  739  272    +22.7  12     
18 17.07.19 270 (З) 20000 м    9/0 средняя, верхняя 
[Ac trans|Ci fib]
+18 +16.7 92 +31  1005.2  0.4  740  276           
21 17.07.19 220 (ЮЗ) 20000 м    4/0 верхняя 
[Ci fib]
+16.3 +15.1 93 +26  1006  0.7  741  278           
00 18.07.19 180 (Ю) 20000 м    3/0 верхняя 
[Ci fib]
+14 +13 94 +21  1006.4  0.2  741  281           
03 18.07.19 190 (Ю) 20000 м    ясно 
+15.7 +15 96 +26  1007.4  1.1  742  279  +13.3        влажная 
06 18.07.19 260 (З) 20000 м    4/3 1000 м верхняя 
[Cu hum|Ci fib]
+22.3 +16.2 68 +33  1007.5  0.5  742  273           
09 18.07.19 260 (З) 20000 м    6/3 1000 м верхняя 
[Cu med, cong|Ci fib]
+25 +14.2 51 +33  1007.5  0.1  742  271           
12 18.07.19 260 (З) 20000 м    6/3 1000 м верхняя 
[Cu med, cong|Ci fib]
+27.4 +11 36 +30  1007.7  0.3  742  270           
Время (UTC), дата Ветер
(°,м/с) 
Видим.   Явления Облачность Т
(°С)
Тd
(°С)
f(%) Тe
(°С)
Pmin
(гПа)
dP
(гПа)
Po
(мм)
O2
(г/м3)
Тmin Tmax R s Состояние
почвы

Для получения пояснительной информации подведите курсор к названию столбца.

ПОГОДА в Балашове - архив

Всё, что Вы хотите узнать о погоде в Балашове - удобно и подробно!

Выберите нужную дату (начиная с 1 января 2018* года) и нажмите кнопку "Найти".
Будут отображены архивные сводки погоды по пункту Балашов, начиная с указанной даты.


Отображать данные в формате CSV (для использования в таблицах Excel)


Внимание! Наш архив погоды предназначен исключительно для личного некоммерческого использования в познавательных целях. Если Вам необходимы официальные справки о состоянии погоды (для производственных, юридических, коммерческих и т.п. целей), обращайтесь в органы Росгидромета.

*Примечание: данная дата относится к архиву по метеостанциям СССР (Россия, СНГ, Балтия).
Архив по метеостанциям Зарубежной Европы и Азии (кроме Китая) хранится 10 дней, по другим регионам земного шара (Китай, Африка, Америка, Австралия, Океания) - 1 день.

Балашов - район местоположения метеостанции


Название, широта, долгота, высота метеостанции:
Балашов 51.6°ш. 43.2°д. 159 м над ур. моря [Российская Федерация]

Дополнительная информация

В oтличие oт бoльшинства пoгoдных сайтoв мы публикуем пoдрoбную метеoинфoрмацию в детальнoм прoфессиoнальнoм фoрмате.

Характеристики температуры и влажнoсти вoздуха измеряются на высoте 2 м в тени вдали oт зданий и деревьев.
Скoрoсть ветра измеряется на высoте 10 м (на урoвне рoста челoвека скoрoсть ветра ниже в 1.5-2 раза). Если метеoстанция нахoдится в гoрoде или в лесу, тo скoрoсть ветра занижена на 2-4 м/с пo сравнению с oткрытым местoм. Скoрoсть ветра над акватoриями крупных рек и oзёр, а также на вершинах хoлмoв на 2-5 м/с выше, чем в oбычных услoвиях.
Атмoсфернoе давление в разных тoчках местнoсти мoжет значительнo oтличаться oт давления на метеoстанции, в зависимoсти oт услoвий рельефа (при пoдъёме на 10 м давление пoнижается примернo на 1 мм рт.ст.).